Location: Unspecified
(30.2330°N, 120.0460°E)
Time: 02:51:17
(UTC+00:00)

Daily predictions for brighter satellites

Satellite Brightness Start Highest point End
(mag) Time Altitude Azimuth Time Altitude Azimuth Time Altitude Azimuth
Cosmos 2279 Rocket 4.3 11:26:56 10° S 11:33:06 74° W 11:39:18 10° N
Thor Agena Rocket 3.5 11:30:18 10° NNE 11:35:20 62° ESE 11:40:18 10° S
SJ-6B 2.9 11:32:11 10° S 11:36:03 86° WSW 11:40:02 10° NNW
SEDSat Delta rocket 4.4 11:31:26 10° SSW 11:36:19 29° SSE 11:40:39 10° E
Cosmos 1626 Rocket 4.2 11:38:02 10° SSW 11:42:27 62° W 11:46:51 10° N
USA 186 1.7 11:39:15 10° SSE 11:42:31 68° E 11:45:37 10° N
Cosmos 1400 Rocket 2.8 11:40:59 10° S 11:45:01 77° E 11:49:01 10° N
CZ-3 Stage 3 2.7 11:45:09 10° W 11:47:50 84° S 11:57:10 10° E
Envisat 3.9 11:44:57 10° S 11:49:51 51° W 11:54:48 10° NNW
YAOGAN 6 2.8 11:50:11 10° S 11:53:42 69° W 11:57:12 10° NNW
Cosmos 1470 2.8 11:51:49 10° N 11:55:44 82° W 11:59:39 10° S
